Location: Brunembert
(50.7122°N, 1.8935°E)
Time: 09:12:54
(UTC+00:00)

Cosmos 1634 Rocket - Pass Details

Date: 22 April 2021
Orbit: 959 x 993 km, 82.9° (Epoch: 16 May)

Event Time Altitude Azimuth Distance (km) Brightness Sun altitude
Rises 19:55:20 0° 193° (SSW) 3,678 6.8 -8.8°
Reaches altitude 10° 19:57:52 10° 195° (SSW) 2,730 6.2 -9.1°
Maximum altitude 20:04:07 76° 281° (W) 1,009 4.3 -9.9°
Drops below altitude 10° 20:10:23 10° 7° (N) 2,724 6.7 -10.7°
Sets 20:12:54 0° 10° (N) 3,670 7.4 -11.1°
